DEHEN EDDL-EDDL

Flight info

Callsign DEHEN
Flight time 0h 1m
Altitude
Route
Aircraft DC3

Departure

Time 2026-05-07 17:56
Airport Düsseldorf Airport (EDDL)

Arrival

Time 2026-05-07 17:58
Airport Düsseldorf Airport (EDDL)
Time Latitude Longitude Altitude Speed Heading
2026-05-07 17:56 51.25528 6.75024 1178 ft 126 kts 242°
2026-05-07 17:56 51.25416 6.73734 1168 ft 123 kts 297°
2026-05-07 17:57 51.26086 6.72875 1138 ft 125 kts 328°
2026-05-07 17:57 51.26807 6.72794 989 ft 109 kts 45°
2026-05-07 17:57 51.27213 6.73722 619 ft 86 kts 73°
2026-05-07 17:57 51.27559 6.74387 437 ft 87 kts 50°
2026-05-07 17:58 51.27897 6.75075 227 ft 71 kts 50°
2026-05-07 17:58 51.28169 6.75638 117 ft 49 kts 53°
2026-05-07 17:58 51.28284 6.75887 117 ft 17 kts 57°
2026-05-07 17:58 51.28290 6.75979 120 ft 2 kts 129°
2026-05-07 17:59 51.28268 6.76006 120 ft 5 kts 148°
2026-05-07 17:59 51.28253 6.76020 121 ft 0 kts 147°
2026-05-07 17:59 51.28202 6.76078 122 ft 14 kts 146°
2026-05-07 17:59 51.28138 6.76040 123 ft 13 kts 232°
2026-05-07 18:00 51.28074 6.75906 121 ft 18 kts 232°
2026-05-07 18:00 51.27989 6.75729 121 ft 20 kts 233°
2026-05-07 18:00 51.27904 6.75551 117 ft 20 kts 232°
2026-05-07 18:00 51.27842 6.75419 117 ft 3 kts 233°
2026-05-07 18:01 51.27805 6.75384 116 ft 9 kts 173°
2026-05-07 18:01 51.27728 6.75442 118 ft 15 kts 153°
2026-05-07 18:01 51.27652 6.75498 119 ft 13 kts 154°
2026-05-07 18:01 51.27590 6.75543 121 ft 12 kts 152°
2026-05-07 18:02 51.27477 6.75460 117 ft 7 kts 246°
2026-05-07 18:02 51.27460 6.75394 119 ft 1 kts 266°
2026-05-07 18:02 51.27463 6.75372 120 ft 2 kts 288°
2026-05-07 18:03 51.27503 6.75329 119 ft 7 kts 296°